CW9825 Weather Reports


Display with metric or nautical units.
time (UTC)temp
F
wind
direction
speed
MPH
gust
MPH
rain 1hr
in
rain 24hr
in
rain mn
in
humidity
%
barometer
mb
20260510050024 47 355 0.0 0.0 0.00 0.00 0.00 55 1015.1
20260510045524 47 344 0.0 0.0 0.00 0.00 0.17 55 1015.1
20260510045024 47 344 0.0 0.0 0.00 0.00 0.17 55 1015.0
20260510044531 47 344 0.0 0.0 0.00 0.00 0.17 55 1014.9
20260510044023 47 344 0.0 0.0 0.00 0.00 0.17 56 1014.8
20260510043523 47 344 0.0 0.0 0.00 0.00 0.17 56 1014.9
20260510043024 47 342 0.0 0.0 0.00 0.00 0.17 56 1014.9
20260510042524 47 341 0.0 0.0 0.00 0.00 0.17 55 1015.0
20260510042022 48 341 0.0 0.0 0.00 0.00 0.17 55 1014.9
20260510041522 48 341 0.0 0.0 0.00 0.00 0.17 54 1014.9
20260510041021 48 341 0.0 0.0 0.00 0.00 0.17 53 1014.9
20260510040521 48 341 0.0 0.0 0.00 0.00 0.17 53 1014.8
20260510040021 48 341 0.0 0.0 0.00 0.00 0.17 52 1014.7
20260510035520 48 341 0.0 0.0 0.00 0.00 0.17 52 1014.7
20260510035021 49 341 0.0 0.0 0.00 0.00 0.17 51 1014.7
20260510034519 49 341 0.0 0.0 0.00 0.00 0.17 50 1014.6
20260510034018 49 341 0.0 0.0 0.00 0.00 0.17 49 1014.5
20260510033519 49 341 0.0 0.0 0.00 0.00 0.17 49 1014.5
20260510033019 50 341 0.0 0.0 0.00 0.00 0.17 48 1014.5
20260510032518 50 341 0.0 0.0 0.00 0.00 0.17 47 1014.4
20260510032019 50 341 0.0 0.0 0.00 0.00 0.17 47 1014.4
20260510031519 50 341 0.0 0.0 0.00 0.00 0.17 47 1014.4
20260510031016 50 341 0.0 2.0 0.00 0.00 0.17 46 1014.4
20260510030516 51 341 0.0 2.0 0.00 0.00 0.17 46 1014.4
20260510030016 51 341 1.0 3.0 0.00 0.00 0.17 46 1014.4
20260510025515 51 341 1.0 3.0 0.00 0.00 0.17 45 1014.2
20260510025015 51 340 1.0 3.0 0.00 0.00 0.17 45 1014.2
20260510024516 52 338 0.0 3.0 0.00 0.00 0.17 44 1014.2
20260510024015 52 338 1.0 3.0 0.00 0.00 0.17 44 1014.1
20260510023513 52 337 1.0 3.0 0.00 0.00 0.17 44 1014.2
20260510023013 52 336 1.0 3.0 0.00 0.00 0.17 44 1014.0
20260510022514 53 336 0.0 5.0 0.00 0.00 0.17 43 1014.0
20260510022012 53 336 1.0 6.0 0.00 0.00 0.17 43 1014.0
20260510021514 53 337 3.0 6.0 0.00 0.00 0.17 43 1013.9
20260510021010 53 16 2.0 9.0 0.00 0.00 0.17 42 1013.8
20260510020518 53 336 3.0 9.0 0.00 0.00 0.17 42 1013.6
20260510020010 53 331 3.0 9.0 0.00 0.00 0.17 42 1013.6
20260510015509 54 338 4.0 11.0 0.00 0.00 0.17 41 1013.6
20260510015013 54 329 6.0 11.0 0.00 0.00 0.17 41 1013.5
20260510014509 54 313 4.0 10.0 0.00 0.00 0.17 41 1013.5
20260510014008 54 336 6.0 13.0 0.00 0.00 0.17 40 1013.4
20260510013508 54 355 6.0 13.0 0.00 0.00 0.17 40 1013.4
20260510013009 54 330 6.0 13.0 0.00 0.00 0.17 40 1013.4
20260510012507 54 320 5.0 13.0 0.00 0.00 0.17 40 1013.3
20260510012007 54 335 8.0 15.0 0.00 0.00 0.17 39 1013.2
20260510011509 54 346 7.0 15.0 0.00 0.00 0.17 40 1013.2
20260510011006 54 296 3.0 10.0 0.00 0.00 0.17 40 1013.1
20260510010505 55 339 5.0 14.0 0.00 0.00 0.17 39 1013.1
20260510010112 55 340 7.0 15.0 0.00 0.00 0.17 39 1013.1
20260510005505 55 333 7.0 16.0 0.00 0.00 0.17 39 1013.1
20260510005005 55 5 7.0 16.0 0.00 0.00 0.17 39 1013.0
20260510004504 55 285 8.0 17.0 0.00 0.00 0.17 39 1013.1
20260510004005 55 326 9.0 17.0 0.00 0.00 0.17 38 1013.0
20260510003504 55 318 7.0 14.0 0.00 0.00 0.17 39 1013.0
20260510003004 55 319 7.0 17.0 0.00 0.00 0.17 39 1013.1
20260510002503 55 298 8.0 17.0 0.00 0.00 0.17 38 1013.1
20260510002003 55 272 7.0 19.0 0.00 0.00 0.17 38 1013.0
20260510001502 55 327 11.0 19.0 0.00 0.00 0.17 38 1013.0
20260510001002 55 323 9.0 14.0 0.00 0.00 0.17 39 1013.0
20260510000502 56 315 7.0 16.0 0.00 0.00 0.17 39 1013.0
20260510000001 56 293 9.0 16.0 0.00 0.00 0.17 38 1012.9
20260509235603 56 286 8.0 19.0 0.00 0.00 0.17 38 1012.7
20260509235100 56 329 10.0 19.0 0.00 0.00 0.17 37 1012.7
20260509234602 56 331 10.0 17.0 0.00 0.00 0.17 38 1012.7
20260509234101 56 340 10.0 17.0 0.00 0.00 0.17 38 1012.8
20260509233558 56 325 9.0 16.0 0.00 0.00 0.17 39 1012.6
20260509233059 56 345 8.0 14.0 0.00 0.00 0.17 38 1012.6
20260509232600 56 324 7.0 15.0 0.00 0.00 0.17 40 1012.6
20260509232059 55 323 7.0 16.0 0.00 0.00 0.17 39 1012.7
20260509231558 55 322 8.0 16.0 0.00 0.00 0.17 39 1012.6
20260509231058 55 336 6.0 18.0 0.00 0.00 0.17 39 1012.6
20260509230557 56 310 7.0 21.0 0.00 0.00 0.17 38 1012.6
20260509230057 56 326 12.0 21.0 0.00 0.00 0.17 38 1012.5
20260509225555 56 306 8.0 19.0 0.00 0.00 0.17 39 1012.6
20260509225055 56 10 11.0 21.0 0.00 0.00 0.17 37 1012.4
20260509224555 56 336 13.0 21.0 0.00 0.00 0.17 36 1012.5
20260509224059 56 215 4.0 15.0 0.00 0.00 0.17 37 1012.4
20260509223555 57 360 8.0 20.0 0.00 0.00 0.17 37 1012.3
20260509223101 57 336 10.0 20.0 0.00 0.00 0.17 38 1012.3
20260509222555 56 286 9.0 18.0 0.00 0.00 0.17 37 1012.3
20260509222054 56 296 8.0 19.0 0.00 0.00 0.17 38 1012.4
20260509221554 56 315 9.0 24.0 0.00 0.00 0.17 38 1012.4
20260509221054 56 275 10.0 24.0 0.00 0.00 0.17 40 1012.4
20260509220554 56 321 9.0 21.0 0.00 0.00 0.17 39 1012.3
20260509220053 56 333 12.0 21.0 0.00 0.00 0.17 39 1012.4
20260509215553 57 292 10.0 23.0 0.00 0.00 0.17 38 1012.4
20260509215053 57 345 12.0 23.0 0.00 0.00 0.17 38 1012.3
20260509214552 57 317 10.0 21.0 0.00 0.00 0.17 39 1012.2
20260509214052 58 355 12.0 22.0 0.00 0.00 0.17 39 1012.2
20260509213552 57 336 12.0 22.0 0.00 0.00 0.17 38 1012.3
20260509213052 57 317 9.0 17.0 0.00 0.00 0.17 39 1012.3
20260509212552 56 298 8.0 20.0 0.00 0.00 0.17 40 1012.3
20260509212051 57 317 12.0 20.0 0.00 0.00 0.17 38 1012.3
20260509211551 56 286 4.0 15.0 0.00 0.00 0.17 39 1012.2
20260509211051 56 273 8.0 18.0 0.00 0.00 0.17 39 1012.2
20260509210552 56 302 8.0 19.0 0.00 0.00 0.17 39 1012.3
20260509210057 56 331 12.0 19.0 0.00 0.00 0.17 40 1012.3
20260509205653 56 317 9.0 17.0 0.00 0.00 0.17 39 1012.2
20260509205054 57 360 11.0 18.0 0.00 0.00 0.17 39 1012.2
20260509204554 56 331 8.0 18.0 0.00 0.00 0.17 38 1012.2
20260509204050 56 318 10.0 19.0 0.00 0.00 0.17 39 1012.3
20260509203549 56 321 12.0 19.0 0.00 0.00 0.17 38 1012.3
20260509203049 57 334 8.0 22.0 0.00 0.00 0.17 40 1012.2
20260509202549 57 307 11.0 22.0 0.00 0.00 0.17 39 1012.2
20260509202048 58 323 10.0 22.0 0.00 0.00 0.17 39 1012.2
20260509201549 56 351 10.0 23.0 0.00 0.00 0.17 39 1012.2
20260509201047 57 242 11.0 23.0 0.00 0.00 0.17 41 1012.2
20260509200546 57 355 10.0 22.0 0.00 0.00 0.17 39 1012.1
20260509195545 56 311 9.0 25.0 0.00 0.00 0.17 41 1012.1
20260509195043 56 17 11.0 25.0 0.00 0.00 0.17 40 1012.1
20260509194545 56 355 10.0 18.0 0.00 0.00 0.17 42 1012.0
20260509194043 55 309 6.0 21.0 0.00 0.00 0.17 41 1012.0
20260509193542 55 275 10.0 21.0 0.00 0.00 0.17 42 1012.1
20260509193043 55 302 7.0 19.0 0.00 0.00 0.17 41 1012.0
20260509192541 56 306 10.0 19.0 0.00 0.00 0.17 42 1012.0
20260509192042 55 334 8.0 19.0 0.00 0.00 0.17 43 1012.0
20260509191541 55 346 10.0 18.0 0.00 0.00 0.17 44 1012.0
20260509191041 56 345 7.0 18.0 0.00 0.00 0.17 45 1012.0
20260509190540 56 192 7.0 19.0 0.00 0.00 0.17 44 1012.0
20260509190040 56 261 10.0 19.0 0.00 0.00 0.17 45 1012.0
20260509185539 55 322 6.0 20.0 0.00 0.00 0.17 46 1011.9
20260509185039 55 329 13.0 20.0 0.00 0.00 0.17 45 1012.0
20260509184554 55 319 8.0 26.0 0.00 0.00 0.17 44 1012.0
20260509184037 55 13 13.0 26.0 0.00 0.00 0.17 47 1012.0
20260509183536 54 340 7.0 20.0 0.00 0.00 0.17 48 1012.0
20260509183036 54 282 8.0 18.0 0.00 0.00 0.17 48 1012.1
20260509182536 54 300 7.0 18.0 0.00 0.00 0.17 49 1012.0
20260509182035 54 339 9.0 18.0 0.00 0.00 0.17 47 1011.9
20260509181533 54 294 10.0 20.0 0.00 0.00 0.17 49 1011.9
20260509181034 53 319 10.0 20.0 0.00 0.00 0.17 49 1011.9
20260509180533 53 344 11.0 19.0 0.00 0.00 0.17 49 1011.9
20260509180032 53 295 9.0 18.0 0.00 0.00 0.17 50 1011.9
20260509175531 53 313 9.0 18.0 0.00 0.00 0.17 50 1012.0
20260509175033 53 338 8.0 20.0 0.00 0.00 0.17 49 1011.9
20260509174535 53 302 12.0 22.0 0.00 0.00 0.17 49 1011.9
20260509174029 52 324 9.0 19.0 0.00 0.00 0.17 50 1011.9
20260509173529 52 327 6.0 21.0 0.00 0.00 0.17 50 1011.9
20260509173029 52 312 10.0 23.0 0.00 0.00 0.17 50 1011.9
20260509172527 52 338 9.0 23.0 0.00 0.00 0.17 51 1011.9
20260509172027 51 333 9.0 20.0 0.00 0.00 0.17 52 1011.8
20260509171531 51 322 10.0 20.0 0.00 0.00 0.17 51 1011.9
20260509171025 51 297 9.0 20.0 0.00 0.00 0.17 52 1011.9
20260509170525 51 311 10.0 20.0 0.00 0.00 0.17 51 1011.9
20260509170025 51 342 9.0 17.0 0.00 0.00 0.17 52 1011.8
20260509165527 51 262 4.0 16.0 0.00 0.00 0.17 53 1011.7
20260509165023 51 288 9.0 17.0 0.00 0.00 0.17 54 1011.7
20260509164523 51 300 10.0 17.0 0.00 0.00 0.17 54 1011.8
20260509164021 50 350 8.0 15.0 0.00 0.00 0.17 54 1011.7
20260509163529 51 304 7.0 20.0 0.00 0.00 0.17 54 1011.6
20260509163023 50 342 10.0 20.0 0.00 0.00 0.17 52 1011.6
20260509162519 50 347 9.0 18.0 0.00 0.00 0.17 53 1011.6
20260509162019 50 36 9.0 18.0 0.00 0.00 0.17 54 1011.5
20260509161517 50 302 11.0 18.0 0.00 0.00 0.17 51 1011.5
20260509161016 50 296 7.0 17.0 0.00 0.00 0.17 55 1011.4
20260509160516 49 355 10.0 17.0 0.00 0.00 0.17 53 1011.3
20260509160015 49 355 11.0 21.0 0.00 0.00 0.17 54 1011.5
20260509155514 50 324 11.0 18.0 0.00 0.00 0.17 53 1011.2
20260509155013 49 340 8.0 17.0 0.00 0.00 0.17 52 1011.2
20260509154515 49 350 7.0 20.0 0.00 0.00 0.17 54 1011.2
20260509154011 49 229 7.0 20.0 0.00 0.00 0.17 55 1011.1
20260509153509 49 355 9.0 18.0 0.00 0.00 0.17 54 1011.1
20260509153020 49 288 7.0 21.0 0.00 0.00 0.17 54 1011.1
20260509152507 49 318 10.0 21.0 0.00 0.00 0.17 54 1010.9
20260509152008 48 315 8.0 19.0 0.00 0.00 0.17 55 1010.8
20260509151504 48 333 7.0 18.0 0.00 0.00 0.17 56 1010.8
20260509151002 48 334 9.0 17.0 0.00 0.00 0.17 57 1010.8
20260509150501 48 325 11.0 17.0 0.00 0.00 0.17 57 1010.7
20260509150100 47 12 9.0 17.0 0.00 0.00 0.17 57 1010.7
20260509145559 47 335 9.0 17.0 0.00 0.00 0.17 56 1010.6
20260509145058 47 5 10.0 20.0 0.00 0.00 0.17 57 1010.6
20260509144608 47 347 10.0 20.0 0.00 0.00 0.17 56 1010.6
20260509144057 47 315 8.0 18.0 0.00 0.00 0.17 58 1010.5
20260509143553 47 327 6.0 19.0 0.00 0.00 0.17 61 1010.5
20260509143116 46 320 10.0 20.0 0.00 0.00 0.17 59 1010.3
20260509142550 46 332 12.0 20.0 0.00 0.00 0.17 59 1010.3
20260509142050 46 53 8.0 16.0 0.00 0.00 0.17 60 1010.1
20260509141547 45 315 8.0 23.0 0.00 0.00 0.17 61 1010.1
20260509141047 45 325 11.0 23.0 0.00 0.00 0.17 59 1010.2
20260509140547 45 278 7.0 18.0 0.00 0.00 0.17 62 1010.1
20260509140049 44 321 11.0 18.0 0.00 0.00 0.17 61 1010.1
20260509135546 45 318 7.0 17.0 0.00 0.00 0.17 61 1010.1
20260509135046 45 22 8.0 16.0 0.00 0.00 0.17 62 1010.0
20260509134600 44 5 6.0 22.0 0.00 0.00 0.17 62 1009.9
20260509134041 44 42 11.0 22.0 0.00 0.00 0.17 62 1009.8
20260509133540 44 347 8.0 21.0 0.00 0.00 0.17 63 1009.7
20260509133045 44 286 8.0 21.0 0.00 0.00 0.17 63 1009.7
20260509132538 44 346 8.0 24.0 0.00 0.00 0.17 64 1009.5
20260509132041 44 39 7.0 18.0 0.00 0.00 0.17 64 1009.5
20260509131538 44 355 9.0 21.0 0.00 0.00 0.17 64 1009.3
20260509131035 43 26 7.0 21.0 0.00 0.00 0.17 65 1009.3
20260509130539 43 304 8.0 19.0 0.00 0.00 0.17 64 1009.2
20260509130046 43 331 11.0 19.0 0.00 0.00 0.17 65 1009.2
20260509125535 43 329 11.0 18.0 0.00 0.00 0.17 65 1009.1
20260509125032 43 5 7.0 18.0 0.00 0.00 0.17 65 1009.0
20260509124535 43 337 8.0 16.0 0.00 0.00 0.17 66 1009.0
20260509124032 42 319 6.0 16.0 0.00 0.00 0.17 68 1008.8
20260509123531 42 336 7.0 16.0 0.00 0.00 0.17 67 1008.8
20260509123031 42 325 6.0 17.0 0.00 0.00 0.17 68 1008.7
20260509122530 42 19 10.0 17.0 0.00 0.00 0.17 69 1008.6
20260509122028 42 26 6.0 14.0 0.00 0.00 0.17 70 1008.5
20260509121540 41 349 7.0 16.0 0.00 0.00 0.17 70 1008.4
20260509121027 41 13 7.0 16.0 0.00 0.00 0.17 71 1008.3
20260509120529 41 323 8.0 16.0 0.00 0.00 0.00 71 1008.3
20260509120025 41 355 7.0 17.0 0.00 0.00 0.00 72 1008.1
20260509115523 41 325 8.0 15.0 0.00 0.00 0.00 73 1008.1
20260509115022 41 46 6.0 17.0 0.00 0.00 0.00 73 1008.0
20260509114531 41 10 8.0 17.0 0.00 0.00 0.00 74 1007.8
20260509114021 41 336 7.0 15.0 0.00 0.00 0.00 75 1007.8
20260509113520 41 316 7.0 15.0 0.00 0.00 0.00 76 1007.6
20260509113024 40 333 6.0 14.0 0.00 0.00 0.00 77 1007.6
20260509112517 40 336 7.0 15.0 0.00 0.00 0.00 78 1007.4
20260509112023 40 336 7.0 15.0 0.00 0.00 0.00 78 1007.3
20260509111515 40 321 6.0 12.0 0.00 0.00 0.00 79 1007.2
20260509111014 40 311 6.0 12.0 0.00 0.00 0.00 79 1007.1
20260509110512 40 338 6.0 12.0 0.00 0.00 0.00 79 1007.0
20260509110011 40 328 6.0 13.0 0.00 0.00 0.00 79 1006.9
20260509105512 40 320 8.0 15.0 0.00 0.00 0.00 79 1006.8
20260509105009 40 348 7.0 15.0 0.00 0.00 0.00 80 1006.7
20260509104511 40 329 8.0 15.0 0.00 0.00 0.00 81 1006.5
20260509104007 40 334 7.0 15.0 0.00 0.00 0.00 82 1006.3
20260509103507 41 304 8.0 14.0 0.00 0.00 0.00 82 1006.3
20260509103005 41 332 7.0 14.0 0.00 0.00 0.00 83 1006.3
20260509102505 41 338 7.0 14.0 0.00 0.00 0.00 83 1006.3
20260509102105 41 342 5.0 14.0 0.00 0.00 0.00 84 1006.2
20260509101504 41 309 7.0 14.0 0.00 0.00 0.00 87 1006.0
20260509101100 41 336 10.0 14.0 0.00 0.00 0.00 89 1005.9
20260509100559 41 267 4.0 10.0 0.00 0.00 0.00 90 1005.9
20260509100059 41 277 4.0 10.0 0.00 0.00 0.00 90 1005.7
20260509095558 41 317 3.0 8.0 0.00 0.00 0.00 90 1005.7
20260509095057 41 279 4.0 11.0 0.00 0.00 0.00 90 1005.7
20260509094603 42 304 5.0 11.0 0.00 0.00 0.00 90 1005.6
20260509094055 42 275 5.0 11.0 0.00 0.00 0.00 90 1005.5
20260509093554 42 326 5.0 11.0 0.00 0.00 0.00 90 1005.5
20260509093103 42 290 4.0 9.0 0.00 0.00 0.00 90 1005.4
20260509092551 42 313 3.0 9.0 0.00 0.00 0.00 89 1005.2
20260509092050 43 321 1.0 8.0 0.00 0.00 0.00 89 1005.2
20260509091548 43 296 2.0 8.0 0.00 0.00 0.00 89 1005.1
20260509091048 43 355 0.0 5.0 0.00 0.00 0.00 88 1005.0
20260509090547 43 325 1.0 8.0 0.00 0.00 0.00 87 1005.0
20260509090050 43 329 3.0 8.0 0.00 0.00 0.00 87 1004.9
20260509085545 43 293 2.0 6.0 0.00 0.00 0.00 87 1004.8
20260509085044 43 316 2.0 6.0 0.00 0.00 0.00 87 1004.7
20260509084546 43 326 4.0 6.0 0.00 0.00 0.00 87 1004.6
20260509084045 43 328 3.0 6.0 0.00 0.00 0.00 87 1004.4
20260509083543 44 326 3.0 5.0 0.00 0.00 0.00 87 1004.2
20260509083042 44 351 2.0 6.0 0.00 0.00 0.00 87 1004.2
20260509082540 44 338 3.0 6.0 0.00 0.00 0.00 86 1004.1
20260509082039 44 344 2.0 8.0 0.00 0.00 0.00 86 1004.0
20260509081542 44 343 3.0 8.0 0.00 0.00 0.00 86 1004.0
20260509081037 44 355 2.0 6.0 0.00 0.00 0.00 86 1004.0
20260509080537 45 9 3.0 8.0 0.00 0.00 0.00 86 1003.9
20260509080037 45 340 3.0 10.0 0.00 0.00 0.00 85 1003.9
20260509075535 45 355 4.0 11.0 0.00 0.00 0.00 85 1003.9
20260509075035 45 20 3.0 9.0 0.00 0.00 0.00 85 1003.9
20260509074543 45 22 4.0 9.0 0.00 0.00 0.00 86 1003.9
20260509074033 45 327 4.0 12.0 0.00 0.00 0.00 86 1003.9
20260509073533 45 347 4.0 10.0 0.00 0.00 0.00 86 1003.9
20260509073031 46 349 4.0 11.0 0.00 0.00 0.00 87 1003.9
20260509072530 46 12 4.0 12.0 0.00 0.00 0.00 87 1003.8
20260509072029 46 355 6.0 15.0 0.00 0.00 0.00 88 1003.9
20260509071527 46 59 7.0 15.0 0.00 0.00 0.00 89 1003.7
20260509071026 46 355 6.0 15.0 0.00 0.00 0.00 90 1003.8
20260509070525 46 314 5.0 15.0 0.00 0.00 0.00 90 1003.8
20260509070025 47 340 5.0 12.0 0.00 0.00 0.00 90 1003.7
20260509065525 47 355 7.0 12.0 0.00 0.00 0.00 90 1003.7
20260509065027 47 338 4.0 10.0 0.00 0.00 0.00 90 1003.7
20260509064523 47 346 4.0 12.0 0.00 0.00 0.00 90 1003.6
20260509064027 47 347 5.0 12.0 0.00 0.00 0.00 90 1003.6
20260509063522 47 325 4.0 9.0 0.00 0.00 0.00 90 1003.5
20260509063027 47 302 4.0 10.0 0.00 0.00 0.00 90 1003.5
20260509062521 47 338 4.0 10.0 0.00 0.00 0.00 90 1003.4
20260509062022 47 342 2.0 4.0 0.00 0.00 0.00 90 1003.3
20260509061518 47 336 1.0 4.0 0.00 0.00 0.00 90 1003.2
20260509061030 47 355 2.0 4.0 0.00 0.00 0.00 90 1002.9
20260509060517 47 333 0.0 4.0 0.00 0.00 0.00 90 1002.8
20260509060019 47 344 0.0 5.0 0.00 0.00 0.00 90 1002.9
20260509055517 47 342 2.0 5.0 0.00 0.00 0.00 90 1002.9
20260509055018 47 28 0.0 4.0 0.00 0.00 0.00 89 1002.8
20260509054516 47 360 1.0 6.0 0.00 0.00 0.00 89 1002.9
20260509054016 47 5 2.0 6.0 0.00 0.00 0.00 89 1002.6
20260509053516 47 11 3.0 6.0 0.00 0.00 0.00 89 1002.6
20260509053016 47 346 2.0 8.0 0.00 0.00 0.00 89 1002.8
20260509052514 47 360 3.0 8.0 0.00 0.00 0.00 89 1002.8
20260509052014 47 340 2.0 8.0 0.00 0.00 0.00 89 1002.8
20260509051514 47 15 2.0 8.0 0.00 0.00 0.00 89 1002.8
20260509051014 47 5 3.0 10.0 0.00 0.00 0.00 88 1002.7
20260509050512 47 342 4.0 11.0 0.00 0.00 0.00 88 1003.0